Regional Weather Roundup
Issued by NWS

Home | Current Version | Previous Version | Text Only | Print | Product List | Glossary On
Versions: 1 2 3 4 5 6 7 8 9 10 11 12 13 14 15 16 17 18 19 20 21 22 23 24 25 26 27 28 29 30 31 32 33 34 35 36 37 38 39 40 41 42 43 44 45 46 47 48 49 50
000
ASUS44 KLIX 140526
RWRLA
LOUISIANA WEATHER ROUNDUP
NATIONAL WEATHER SERVICE NEW ORLEANS LA
1200 AM CDT MON JUL 14 2014

NOTE: "FAIR" INDICATES FEW OR NO CLOUDS BELOW 12,000 FEET WITH NO
      SIGNIFICANT WEATHER AND/OR OBSTRUCTIONS TO VISIBILITY.
      SKY/WX - SKY CONDITION AND SIGNIFICANT WEATHER.
      TMP - AIR TEMPERATURE.    DP   - DEWPOINT TEMPERATURE.
      RH  - RELATIVE HUMIDITY.  PRES - PRESSURE.
      HX  - HEAT INDEX.         WCI  - WIND CHILL INDEX.

*  THESE STATIONS ARE NOT NWS OR FAA STATIONS AND ARE NOT UNDER
   NWS QUALITY CONTROL.

LAZ040-048-061>063-065-066-069-140600-
SOUTHEAST LOUISIANA

CITY           SKY/WX    TMP DP  RH WIND       PRES   REMARKS
N.O. AUDUBON     N/A     79  75  86 MISG        N/A
N.O. INTL ARPT PTCLDY    79  72  79 CALM      30.03F
N.O. LAKEFRONT PTCLDY    82  74  76 S7        30.04F
N.O. DOWNTOWN* CLOUDY    82  72  69 S3        30.05S
SLIDELL        CLEAR     74  71  91 CALM      30.04F
BATON ROUGE    CLEAR     76  72  87 CALM      30.04S
BOOTHVILLE     CLOUDY    82  74  76 S8        30.06F
BELLE CHASSE     N/A     78  73  84 CALM      30.04F
BOGALUSA*      FAIR      74  70  88 CALM      30.06F
GALLIANO*      NOT AVBL
NEW ROADS*     FAIR      75  74  97 CALM      30.03F
GONZALES*      FAIR      74  74 100 CALM      30.03S
HAMMOND*       CLEAR     75  70  83 CALM      30.05F
HOUMA*         PTCLDY    75  72  90 CALM      30.04S
PORT FOURCHON* CLOUDY    79  73  83 W9        30.07R

$$

LAZ041-044-053-054-140600-
SOUTHWEST LOUISIANA

CITY           SKY/WX    TMP DP  RH WIND       PRES   REMARKS
LAKE CHARLES   CLEAR     73  71  93 W3        30.03R
LAFAYETTE      CLEAR     76  74  93 CALM      30.03S
PATTERSON      CLEAR     75  75 100 CALM      30.07S
SALT POINT       N/A     83  78  85 CALM      30.02S
NEW IBERIA     CLEAR     77  74  90 E3        30.03S
CHENAULT AIRPK CLEAR     75  73  91 CALM      30.04R

$$

LAZ027-028-140600-
CENTRAL LOUISIANA

CITY           SKY/WX    TMP DP  RH WIND       PRES   REMARKS
FORT POLK      CLEAR     73  71  93 CALM      30.03R
ALEXANDRIA INT PTCLDY    76  73  91 CALM      30.01S
ALEXANDRIA     PTCLDY    78  74  87 CALM      30.02F

$$

LAZ001-002-140600-
NORTHWEST LOUISIANA

CITY           SKY/WX    TMP DP  RH WIND       PRES   REMARKS
SHREVEPORT     MOCLDY    80  72  76 SW5       29.99F
BARKSDALE AFB  CLEAR     82  71  69 SE6       30.00F
DTN SHREVEPORT CLEAR     83  70  64 SW9       30.00S

$$

LAZ014-016-140600-
NORTHEAST LOUISIANA

CITY           SKY/WX    TMP DP  RH WIND       PRES   REMARKS
MONROE         CLEAR     80  75  84 S3        30.02S
TALLULAH       CLEAR     75  73  93 CALM      30.03R

$$




USA.gov is the U.S. government's official web portal to all federal, state and local government web resources and services.